Location: Kershaw
(34.5481°N, 80.5823°W)
Time: 16:40:32
(UTC+00:00)

Vanguard 1 Rocket - Pass Details

Date: 02 October 2022
Orbit: 650 x 4225 km, 34.3° (Epoch: 08 December)

Event Time Altitude Azimuth Distance (km) Brightness Sun altitude
Rises 06:35:14 0° 284° (WNW) 5,187 - -53.5°
Reaches altitude 10° 06:39:32 10° 278° (W) 3,635 - -52.9°
Maximum altitude 06:47:14 42° 211° (SSW) 1,335 - -51.9°
Drops below altitude 10° 06:52:00 10° 139° (SE) 2,258 - -51.3°
Sets 06:54:06 0° 132° (SE) 3,047 - -51.0°
